| time (UTC) | temp F | wind direction | speed knots | gust knots | rain 1hr in | rain 24hr in | rain mn in | humidity % | barometer mb |
| 20260502170126 | 44 | 330 | 0.9 | 0.0 | 0.00 | 0.00 | 0.00 | 77 | 1016.0 |
| 20260502163018 | 42 | 9 | 1.7 | 0.0 | 0.00 | 0.00 | 0.00 | 82 | 1016.4 |
| 20260502161536 | 42 | 315 | 0.9 | 0.0 | 0.00 | 0.00 | 0.00 | 83 | 1016.4 |
| 20260502151545 | 38 | 42 | 0.0 | 0.0 | 0.00 | 0.00 | 0.00 | 92 | 1016.4 |
| 20260502123029 | 37 | 341 | 2.6 | 0.0 | 0.00 | 0.00 | 0.00 | 95 | 1015.0 |
| 20260502121527 | 37 | 344 | 3.5 | 0.0 | 0.00 | 0.00 | 0.00 | 95 | 1014.9 |
| 20260502114530 | 38 | 304 | 7.8 | 0.0 | 0.00 | 0.00 | 0.00 | 95 | 1014.6 |
| 20260502113025 | 38 | 300 | 7.8 | 0.0 | 0.00 | 0.00 | 0.00 | 95 | 1014.6 |
| 20260502111517 | 39 | 284 | 5.2 | 0.0 | 0.00 | 0.00 | 0.00 | 95 | 1014.4 |
| 20260502110018 | 38 | 288 | 5.2 | 0.0 | 0.00 | 0.00 | 0.00 | 94 | 1014.4 |
| 20260502104520 | 39 | 288 | 6.1 | 0.0 | 0.00 | 0.00 | 0.00 | 94 | 1014.5 |
| 20260502103012 | 39 | 305 | 6.1 | 0.0 | 0.00 | 0.00 | 0.00 | 95 | 1014.4 |
| 20260502101511 | 39 | 289 | 6.1 | 0.0 | 0.00 | 0.00 | 0.00 | 96 | 1014.3 |
| 20260502091507 | 39 | 265 | 6.1 | 0.0 | 0.00 | 0.00 | 0.00 | 96 | 1014.1 |
| 20260502080104 | 41 | 263 | 4.3 | 0.0 | 0.00 | 0.00 | 0.00 | 95 | 1013.9 |
| 20260502070107 | 41 | 290 | 4.3 | 0.0 | 0.00 | 0.00 | 0.00 | 94 | 1013.9 |
| 20260502064620 | 41 | 244 | 4.3 | 0.0 | 0.00 | 0.00 | 0.00 | 93 | 1013.9 |
| 20260502063106 | 41 | 241 | 3.5 | 0.0 | 0.00 | 0.00 | 0.00 | 93 | 1014.0 |
| 20260502061548 | 41 | 256 | 1.7 | 0.0 | 0.00 | 0.00 | 0.00 | 94 | 1014.1 |
| 20260502060048 | 41 | 296 | 0.0 | 0.0 | 0.00 | 0.00 | 0.00 | 95 | 1014.2 |
| 20260502054545 | 41 | 297 | 0.0 | 0.0 | 0.00 | 0.00 | 0.00 | 95 | 1014.4 |
| 20260502053049 | 41 | 297 | 0.0 | 0.0 | 0.00 | 0.00 | 0.00 | 95 | 1014.5 |
| 20260502051542 | 41 | 297 | 0.0 | 0.0 | 0.00 | 0.00 | 0.00 | 95 | 1014.6 |
| 20260502050048 | 41 | 297 | 0.0 | 0.0 | 0.00 | 0.00 | 0.00 | 94 | 1014.6 |
| 20260502044540 | 41 | 297 | 0.0 | 0.0 | 0.00 | 0.00 | 0.00 | 94 | 1014.7 |
| 20260502043058 | 41 | 297 | 0.0 | 0.0 | 0.00 | 0.00 | 0.00 | 93 | 1014.8 |
| 20260502041541 | 42 | 297 | 0.0 | 0.0 | 0.00 | 0.00 | 0.00 | 93 | 1014.7 |
| 20260502040033 | 42 | 271 | 4.3 | 0.0 | 0.00 | 0.00 | 0.00 | 91 | 1014.7 |
| 20260502034532 | 42 | 256 | 1.7 | 0.0 | 0.00 | 0.00 | 0.32 | 93 | 1014.7 |
| 20260502033030 | 42 | 290 | 0.0 | 0.0 | 0.00 | 0.00 | 0.32 | 94 | 1014.7 |
| 20260502031528 | 42 | 302 | 0.0 | 0.0 | 0.00 | 0.00 | 0.32 | 94 | 1014.5 |
| 20260502030028 | 42 | 302 | 0.0 | 0.0 | 0.00 | 0.00 | 0.32 | 94 | 1014.3 |
| 20260502024531 | 42 | 315 | 0.0 | 0.0 | 0.00 | 0.00 | 0.32 | 94 | 1014.3 |
| 20260502023026 | 42 | 315 | 0.0 | 0.0 | 0.00 | 0.00 | 0.32 | 94 | 1014.4 |
| 20260502021525 | 42 | 315 | 0.0 | 0.0 | 0.00 | 0.00 | 0.32 | 95 | 1014.3 |
| 20260502020024 | 42 | 315 | 0.0 | 0.0 | 0.00 | 0.00 | 0.32 | 94 | 1014.2 |
| 20260502014524 | 42 | 315 | 0.0 | 0.0 | 0.00 | 0.00 | 0.32 | 93 | 1014.1 |
| 20260502013021 | 42 | 315 | 0.0 | 0.0 | 0.00 | 0.00 | 0.32 | 93 | 1014.0 |
| 20260502011520 | 42 | 315 | 0.0 | 0.0 | 0.00 | 0.00 | 0.32 | 92 | 1014.0 |
| 20260502010027 | 42 | 315 | 0.0 | 0.0 | 0.00 | 0.00 | 0.32 | 91 | 1013.9 |
| 20260502004526 | 42 | 315 | 0.0 | 0.0 | 0.00 | 0.00 | 0.32 | 89 | 1013.8 |
| 20260502003016 | 43 | 315 | 0.0 | 0.0 | 0.00 | 0.00 | 0.32 | 86 | 1013.5 |
| 20260502001513 | 43 | 315 | 0.0 | 0.0 | 0.00 | 0.00 | 0.32 | 85 | 1013.2 |
| 20260502000012 | 44 | 315 | 0.0 | 0.0 | 0.00 | 0.00 | 0.32 | 84 | 1013.0 |
| 20260501234513 | 45 | 315 | 0.0 | 0.0 | 0.00 | 0.00 | 0.32 | 82 | 1012.7 |
| 20260501233009 | 45 | 315 | 0.9 | 0.0 | 0.00 | 0.00 | 0.32 | 81 | 1012.7 |
| 20260501231510 | 45 | 294 | 2.6 | 0.0 | 0.00 | 0.00 | 0.32 | 82 | 1012.8 |
| 20260501230019 | 45 | 319 | 1.7 | 0.0 | 0.00 | 0.00 | 0.32 | 81 | 1012.9 |
| 20260501224508 | 45 | 327 | 1.7 | 0.0 | 0.00 | 0.00 | 0.32 | 80 | 1012.9 |
| 20260501223007 | 46 | 348 | 1.7 | 0.0 | 0.00 | 0.00 | 0.32 | 81 | 1012.9 |
| 20260501221507 | 45 | 322 | 2.6 | 0.0 | 0.00 | 0.00 | 0.32 | 83 | 1012.5 |
| 20260501220006 | 45 | 300 | 4.3 | 0.0 | 0.00 | 0.00 | 0.32 | 81 | 1012.3 |
| 20260501214506 | 45 | 296 | 1.7 | 0.0 | 0.00 | 0.00 | 0.32 | 82 | 1012.3 |
| 20260501213005 | 46 | 311 | 3.5 | 0.0 | 0.00 | 0.00 | 0.32 | 81 | 1012.3 |
| 20260501211505 | 46 | 319 | 3.5 | 0.0 | 0.00 | 0.00 | 0.32 | 81 | 1012.0 |
| 20260501210003 | 46 | 14 | 0.9 | 0.0 | 0.00 | 0.00 | 0.32 | 88 | 1011.9 |
| 20260501204501 | 44 | 321 | 1.7 | 0.0 | 0.00 | 0.00 | 0.32 | 93 | 1011.7 |
| 20260501203001 | 42 | 347 | 1.7 | 0.0 | 0.00 | 0.00 | 0.32 | 95 | 1011.7 |
| 20260501201601 | 42 | 323 | 2.6 | 0.0 | 0.00 | 0.00 | 0.32 | 96 | 1011.5 |
| 20260501200058 | 42 | 340 | 1.7 | 0.0 | 0.00 | 0.00 | 0.32 | 96 | 1011.5 |
| 20260501194557 | 42 | 297 | 0.9 | 0.0 | 0.00 | 0.00 | 0.32 | 96 | 1011.3 |
| 20260501193057 | 42 | 36 | 0.9 | 0.0 | 0.00 | 0.00 | 0.32 | 96 | 1011.3 |
| 20260501191555 | 42 | 326 | 1.7 | 0.0 | 0.00 | 0.00 | 0.32 | 96 | 1011.2 |
| 20260501190055 | 42 | 329 | 1.7 | 0.0 | 0.00 | 0.00 | 0.31 | 96 | 1011.0 |
| 20260501184553 | 42 | 323 | 1.7 | 0.0 | 0.00 | 0.00 | 0.31 | 96 | 1010.9 |
| 20260501183103 | 42 | 332 | 0.9 | 0.0 | 0.00 | 0.00 | 0.30 | 97 | 1010.7 |
| 20260501181550 | 42 | 342 | 0.0 | 0.0 | 0.00 | 0.00 | 0.28 | 96 | 1010.7 |
| 20260501180050 | 42 | 348 | 1.7 | 0.0 | 0.00 | 0.00 | 0.27 | 96 | 1010.6 |
| 20260501174548 | 42 | 355 | 1.7 | 0.0 | 0.00 | 0.00 | 0.26 | 96 | 1010.4 |
| 20260501173049 | 43 | 317 | 3.5 | 0.0 | 0.00 | 0.00 | 0.26 | 96 | 1010.3 |